TimeEST,TemperatureF,Dew PointF,Humidity,Sea Level PressureIn,VisibilityMPH,Wind Direction,Wind SpeedMPH,Gust SpeedMPH,PrecipitationIn,Events,Conditions,WindDirDegrees,DateUTC
12:54 AM,36.0,27.0,70,29.83,10.0,WNW,4.6,-,N/A,,Clear,290,2013-03-02 05:54:00
2:54 AM,35.1,27.0,72,29.83,10.0,Calm,Calm,-,N/A,,Overcast,0,2013-03-02 07:54:00
3:54 AM,35.1,26.1,70,29.83,10.0,NW,3.5,-,N/A,,Mostly Cloudy,310,2013-03-02 08:54:00
4:54 AM,34.0,26.1,73,29.84,10.0,NW,3.5,-,N/A,,Mostly Cloudy,320,2013-03-02 09:54:00
5:54 AM,32.0,26.1,79,29.84,10.0,Calm,Calm,-,N/A,,Overcast,0,2013-03-02 10:54:00
6:54 AM,34.0,26.1,73,29.84,10.0,Calm,Calm,-,0.00,,Overcast,0,2013-03-02 11:54:00
7:54 AM,35.1,24.1,64,29.85,10.0,Variable,3.5,-,N/A,,Overcast,0,2013-03-02 12:54:00
8:54 AM,37.0,21.0,52,29.85,10.0,North,10.4,18.4,N/A,,Overcast,360,2013-03-02 13:54:00
9:54 AM,39.0,21.9,50,29.85,10.0,North,8.1,-,N/A,,Overcast,360,2013-03-02 14:54:00
10:54 AM,39.0,23.0,53,29.84,10.0,NNW,9.2,-,N/A,,Overcast,340,2013-03-02 15:54:00
11:54 AM,39.0,21.9,50,29.83,10.0,NW,6.9,-,N/A,,Overcast,310,2013-03-02 16:54:00
12:54 PM,39.9,21.9,49,29.79,10.0,Variable,5.8,-,N/A,,Overcast,0,2013-03-02 17:54:00
1:54 PM,39.0,21.0,49,29.78,10.0,WNW,10.4,20.7,N/A,,Overcast,300,2013-03-02 18:54:00
2:54 PM,37.9,19.9,48,29.78,10.0,West,9.2,17.3,N/A,,Overcast,260,2013-03-02 19:54:00
3:54 PM,37.9,21.9,53,29.78,10.0,NW,6.9,18.4,N/A,,Overcast,310,2013-03-02 20:54:00
5:54 PM,36.0,25.0,64,29.81,10.0,WNW,10.4,-,N/A,,Mostly Cloudy,290,2013-03-02 22:54:00
6:54 PM,34.0,26.1,73,29.82,10.0,West,5.8,-,N/A,,Partly Cloudy,270,2013-03-02 23:54:00
7:54 PM,35.1,25.0,67,29.81,10.0,West,5.8,-,N/A,,Overcast,270,2013-03-03 00:54:00
8:54 PM,35.1,25.0,67,29.82,10.0,West,4.6,-,N/A,,Overcast,280,2013-03-03 01:54:00
9:54 PM,35.1,23.0,61,29.82,10.0,WNW,4.6,-,N/A,,Overcast,290,2013-03-03 02:54:00
10:54 PM,35.1,21.9,59,29.81,10.0,West,6.9,-,N/A,,Overcast,280,2013-03-03 03:54:00
11:54 PM,35.1,21.0,57,29.81,10.0,WNW,9.2,-,N/A,,Overcast,290,2013-03-03 04:54:00